Year,Month,Day,Hour,Minute,Value (Times are PST for insolation in W/m^2)
2008,05,31,00,00,0.00
2008,05,31,00,01,0.00
2008,05,31,00,02,0.00
2008,05,31,00,03,0.00
2008,05,31,00,04,0.00
2008,05,31,00,05,0.00
2008,05,31,00,06,0.00
2008,05,31,00,07,0.00
2008,05,31,00,08,0.00
2008,05,31,00,09,0.00
2008,05,31,00,10,0.00
2008,05,31,00,11,0.00
2008,05,31,00,12,0.00
2008,05,31,00,13,0.00
2008,05,31,00,14,0.00
2008,05,31,00,15,0.00
2008,05,31,00,16,0.00
2008,05,31,00,17,0.00
2008,05,31,00,18,0.00
2008,05,31,00,19,0.00
2008,05,31,00,20,0.00
2008,05,31,00,21,0.00
2008,05,31,00,22,0.00
2008,05,31,00,23,0.00
2008,05,31,00,24,0.00
2008,05,31,00,25,0.00
2008,05,31,00,26,0.00
2008,05,31,00,27,0.00
2008,05,31,00,28,0.00
2008,05,31,00,29,0.00
2008,05,31,00,30,0.00
2008,05,31,00,31,0.00
2008,05,31,00,32,0.00
2008,05,31,00,33,0.00
2008,05,31,00,34,0.00
2008,05,31,00,35,0.00
2008,05,31,00,36,0.00
2008,05,31,00,37,0.00
2008,05,31,00,38,0.00
2008,05,31,00,39,0.00
2008,05,31,00,40,0.00
2008,05,31,00,41,0.00
2008,05,31,00,42,0.00
2008,05,31,00,43,0.00
2008,05,31,00,44,0.00
2008,05,31,00,45,0.00
2008,05,31,00,46,0.00
2008,05,31,00,47,0.00
2008,05,31,00,48,0.00
2008,05,31,00,49,0.00
2008,05,31,00,50,0.00
2008,05,31,00,51,0.00
2008,05,31,00,52,0.00
2008,05,31,00,53,0.00
2008,05,31,00,54,0.00
2008,05,31,00,55,0.00
2008,05,31,00,56,0.00
2008,05,31,00,57,0.00
2008,05,31,00,58,0.00
2008,05,31,00,59,0.00
2008,05,31,01,00,0.00
2008,05,31,01,01,0.00
2008,05,31,01,02,0.00
2008,05,31,01,03,0.00
2008,05,31,01,04,0.00
2008,05,31,01,05,0.00
2008,05,31,01,06,0.00
2008,05,31,01,07,0.00
2008,05,31,01,08,0.00
2008,05,31,01,09,0.00
2008,05,31,01,10,0.00
2008,05,31,01,11,0.00
2008,05,31,01,12,0.00
2008,05,31,01,13,0.00
2008,05,31,01,14,0.00
2008,05,31,01,15,0.00
2008,05,31,01,16,0.00
2008,05,31,01,17,0.00
2008,05,31,01,18,0.00
2008,05,31,01,19,0.00
2008,05,31,01,20,0.00
2008,05,31,01,21,0.00
2008,05,31,01,22,0.00
2008,05,31,01,23,0.00
2008,05,31,01,24,0.00
2008,05,31,01,25,0.00
2008,05,31,01,26,0.00
2008,05,31,01,27,0.00
2008,05,31,01,28,0.00
2008,05,31,01,29,0.00
2008,05,31,01,30,0.00
2008,05,31,01,31,0.00
2008,05,31,01,32,0.00
2008,05,31,01,33,0.00
2008,05,31,01,34,0.00
2008,05,31,01,35,0.00
2008,05,31,01,36,0.00
2008,05,31,01,37,0.00
2008,05,31,01,38,0.00
2008,05,31,01,39,0.00
2008,05,31,01,40,0.00
2008,05,31,01,41,0.00
2008,05,31,01,42,0.00
2008,05,31,01,43,0.00
2008,05,31,01,44,0.00
2008,05,31,01,45,0.00
2008,05,31,01,46,0.00
2008,05,31,01,47,0.00
2008,05,31,01,48,0.00
2008,05,31,01,49,0.00
2008,05,31,01,50,0.00
2008,05,31,01,51,0.00
2008,05,31,01,52,0.00
2008,05,31,01,53,0.00
2008,05,31,01,54,0.00
2008,05,31,01,55,0.00
2008,05,31,01,56,0.00
2008,05,31,01,57,0.00
2008,05,31,01,58,0.00
2008,05,31,01,59,0.00
2008,05,31,02,00,0.00
2008,05,31,02,01,0.00
2008,05,31,02,02,0.00
2008,05,31,02,03,0.00
2008,05,31,02,04,0.00
2008,05,31,02,05,0.00
2008,05,31,02,06,0.00
2008,05,31,02,07,0.00
2008,05,31,02,08,0.00
2008,05,31,02,09,0.00
2008,05,31,02,10,0.00
2008,05,31,02,11,0.00
2008,05,31,02,12,0.00
2008,05,31,02,13,0.00
2008,05,31,02,14,0.00
2008,05,31,02,15,0.00
2008,05,31,02,16,0.00
2008,05,31,02,17,0.00
2008,05,31,02,18,0.00
2008,05,31,02,19,0.00
2008,05,31,02,20,0.00
2008,05,31,02,21,0.00
2008,05,31,02,22,0.00
2008,05,31,02,23,0.00
2008,05,31,02,24,0.00
2008,05,31,02,25,0.00
2008,05,31,02,26,0.00
2008,05,31,02,27,0.00
2008,05,31,02,28,0.00
2008,05,31,02,29,0.00
2008,05,31,02,30,0.00
2008,05,31,02,31,0.00
2008,05,31,02,32,0.00
2008,05,31,02,33,0.00
2008,05,31,02,34,0.00
2008,05,31,02,35,0.00
2008,05,31,02,36,0.00
2008,05,31,02,37,0.00
2008,05,31,02,38,0.00
2008,05,31,02,39,0.00
2008,05,31,02,40,0.00
2008,05,31,02,41,0.00
2008,05,31,02,42,0.00
2008,05,31,02,43,0.00
2008,05,31,02,44,0.00
2008,05,31,02,45,0.00
2008,05,31,02,46,0.00
2008,05,31,02,47,0.00
2008,05,31,02,48,0.00
2008,05,31,02,49,0.00
2008,05,31,02,50,0.00
2008,05,31,02,51,0.00
2008,05,31,02,52,0.00
2008,05,31,02,53,0.00
2008,05,31,02,54,0.00
2008,05,31,02,55,0.00
2008,05,31,02,56,0.00
2008,05,31,02,57,0.00
2008,05,31,02,58,0.00
2008,05,31,02,59,0.00
2008,05,31,03,00,0.00
2008,05,31,03,01,0.00
2008,05,31,03,02,0.00
2008,05,31,03,03,0.00
2008,05,31,03,04,0.00
2008,05,31,03,05,0.00
2008,05,31,03,06,0.00
2008,05,31,03,07,0.00
2008,05,31,03,08,0.00
2008,05,31,03,09,0.00
2008,05,31,03,10,0.00
2008,05,31,03,11,0.00
2008,05,31,03,12,0.00
2008,05,31,03,13,0.00
2008,05,31,03,14,0.00
2008,05,31,03,15,0.00
2008,05,31,03,16,0.00
2008,05,31,03,17,0.00
2008,05,31,03,18,0.00
2008,05,31,03,19,0.00
2008,05,31,03,20,0.00
2008,05,31,03,21,0.00
2008,05,31,03,22,0.00
2008,05,31,03,23,0.00
2008,05,31,03,24,0.00
2008,05,31,03,25,0.00
2008,05,31,03,26,0.00
2008,05,31,03,27,0.00
2008,05,31,03,28,0.00
2008,05,31,03,29,0.00
2008,05,31,03,30,0.00
2008,05,31,03,31,0.00
2008,05,31,03,32,0.00
2008,05,31,03,33,0.00
2008,05,31,03,34,0.00
2008,05,31,03,35,0.00
2008,05,31,03,36,0.00
2008,05,31,03,37,0.00
2008,05,31,03,38,0.00
2008,05,31,03,39,0.00
2008,05,31,03,40,0.00
2008,05,31,03,41,0.00
2008,05,31,03,42,0.00
2008,05,31,03,43,0.00
2008,05,31,03,44,0.00
2008,05,31,03,45,0.00
2008,05,31,03,46,0.00
2008,05,31,03,47,0.00
2008,05,31,03,48,0.00
2008,05,31,03,49,0.00
2008,05,31,03,50,0.00
2008,05,31,03,51,0.00
2008,05,31,03,52,0.00
2008,05,31,03,53,0.00
2008,05,31,03,54,0.00
2008,05,31,03,55,0.00
2008,05,31,03,56,0.00
2008,05,31,03,57,0.00
2008,05,31,03,58,0.00
2008,05,31,03,59,0.00
2008,05,31,04,00,0.00
2008,05,31,04,01,0.00
2008,05,31,04,02,0.00
2008,05,31,04,03,0.00
2008,05,31,04,04,0.00
2008,05,31,04,05,0.00
2008,05,31,04,06,0.00
2008,05,31,04,07,0.00
2008,05,31,04,08,0.00
2008,05,31,04,09,0.00
2008,05,31,04,10,0.00
2008,05,31,04,11,0.00
2008,05,31,04,12,0.00
2008,05,31,04,13,0.00
2008,05,31,04,14,0.00
2008,05,31,04,15,0.00
2008,05,31,04,16,0.00
2008,05,31,04,17,0.00
2008,05,31,04,18,0.00
2008,05,31,04,19,0.00
2008,05,31,04,20,0.00
2008,05,31,04,21,0.00
2008,05,31,04,22,0.00
2008,05,31,04,23,0.00
2008,05,31,04,24,0.00
2008,05,31,04,25,0.00
2008,05,31,04,26,0.00
2008,05,31,04,27,0.00
2008,05,31,04,28,0.00
2008,05,31,04,29,0.00
2008,05,31,04,30,0.00
2008,05,31,04,31,0.00
2008,05,31,04,32,0.00
2008,05,31,04,33,0.00
2008,05,31,04,34,0.00
2008,05,31,04,35,0.00
2008,05,31,04,36,0.00
2008,05,31,04,37,0.00
2008,05,31,04,38,0.00
2008,05,31,04,39,0.00
2008,05,31,04,40,0.00
2008,05,31,04,41,0.00
2008,05,31,04,42,0.00
2008,05,31,04,43,0.00
2008,05,31,04,44,0.00
2008,05,31,04,45,0.00
2008,05,31,04,46,0.00
2008,05,31,04,47,0.00
2008,05,31,04,48,0.00
2008,05,31,04,49,0.00
2008,05,31,04,50,0.00
2008,05,31,04,51,0.00
2008,05,31,04,52,0.00
2008,05,31,04,53,0.00
2008,05,31,04,54,0.00
2008,05,31,04,55,0.00
2008,05,31,04,56,0.00
2008,05,31,04,57,0.00
2008,05,31,04,58,0.00
2008,05,31,04,59,0.00
2008,05,31,05,00,0.00
2008,05,31,05,01,0.00
2008,05,31,05,02,0.00
2008,05,31,05,03,0.00
2008,05,31,05,04,0.00
2008,05,31,05,05,0.00
2008,05,31,05,06,0.00
2008,05,31,05,07,0.00
2008,05,31,05,08,0.00
2008,05,31,05,09,0.00
2008,05,31,05,10,0.00
2008,05,31,05,11,0.00
2008,05,31,05,12,0.00
2008,05,31,05,13,0.00
2008,05,31,05,14,0.00
2008,05,31,05,15,0.00
2008,05,31,05,16,0.00
2008,05,31,05,17,0.00
2008,05,31,05,18,0.00
2008,05,31,05,19,0.30
2008,05,31,05,20,5.00
2008,05,31,05,21,5.00
2008,05,31,05,22,5.00
2008,05,31,05,23,5.00
2008,05,31,05,24,5.00
2008,05,31,05,25,6.30
2008,05,31,05,26,7.00
2008,05,31,05,27,7.00
2008,05,31,05,28,7.00
2008,05,31,05,29,7.00
2008,05,31,05,30,7.70
2008,05,31,05,31,9.00
2008,05,31,05,32,9.00
2008,05,31,05,33,9.00
2008,05,31,05,34,9.00
2008,05,31,05,35,10.80
2008,05,31,05,36,11.00
2008,05,31,05,37,11.00
2008,05,31,05,38,11.00
2008,05,31,05,39,11.40
2008,05,31,05,40,12.00
2008,05,31,05,41,12.00
2008,05,31,05,42,12.00
2008,05,31,05,43,12.00
2008,05,31,05,44,12.00
2008,05,31,05,45,14.00
2008,05,31,05,46,14.00
2008,05,31,05,47,14.00
2008,05,31,05,48,14.00
2008,05,31,05,49,15.00
2008,05,31,05,50,16.00
2008,05,31,05,51,16.00
2008,05,31,05,52,16.00
2008,05,31,05,53,16.00
2008,05,31,05,54,16.20
2008,05,31,05,55,18.00
2008,05,31,05,56,18.00
2008,05,31,05,57,18.00
2008,05,31,05,58,18.00
2008,05,31,05,59,18.00
2008,05,31,06,00,18.80
2008,05,31,06,01,19.00
2008,05,31,06,02,19.00
2008,05,31,06,03,19.00
2008,05,31,06,04,19.00
2008,05,31,06,05,19.70
2008,05,31,06,06,21.00
2008,05,31,06,07,21.00
2008,05,31,06,08,21.00
2008,05,31,06,09,21.00
2008,05,31,06,10,21.00
2008,05,31,06,11,23.00
2008,05,31,06,12,23.00
2008,05,31,06,13,23.00
2008,05,31,06,14,23.00
2008,05,31,06,15,24.10
2008,05,31,06,16,25.00
2008,05,31,06,17,25.00
2008,05,31,06,18,25.00
2008,05,31,06,19,25.00
2008,05,31,06,20,25.10
2008,05,31,06,21,26.00
2008,05,31,06,22,26.00
2008,05,31,06,23,26.00
2008,05,31,06,24,26.00
2008,05,31,06,25,26.00
2008,05,31,06,26,27.50
2008,05,31,06,27,28.00
2008,05,31,06,28,28.00
2008,05,31,06,29,28.00
2008,05,31,06,30,28.00
2008,05,31,06,31,28.80
2008,05,31,06,32,30.00
2008,05,31,06,33,30.00
2008,05,31,06,34,30.00
2008,05,31,06,35,30.00
2008,05,31,06,36,30.00
2008,05,31,06,37,32.00
2008,05,31,06,38,32.00
2008,05,31,06,39,32.00
2008,05,31,06,40,32.00
2008,05,31,06,41,32.50
2008,05,31,06,42,33.00
2008,05,31,06,43,33.00
2008,05,31,06,44,33.00
2008,05,31,06,45,33.00
2008,05,31,06,46,33.30
2008,05,31,06,47,35.00
2008,05,31,06,48,35.00
2008,05,31,06,49,35.00
2008,05,31,06,50,35.00
2008,05,31,06,51,35.00
2008,05,31,06,52,35.00
2008,05,31,06,53,36.70
2008,05,31,06,54,37.00
2008,05,31,06,55,37.00
2008,05,31,06,56,37.00
2008,05,31,06,57,37.00
2008,05,31,06,58,38.10
2008,05,31,06,59,39.00
2008,05,31,07,00,39.00
2008,05,31,07,01,39.00
2008,05,31,07,02,39.00
2008,05,31,07,03,39.00
2008,05,31,07,04,39.00
2008,05,31,07,05,39.30
2008,05,31,07,06,40.00
2008,05,31,07,07,40.00
2008,05,31,07,08,40.00
2008,05,31,07,09,40.00
2008,05,31,07,10,40.00
2008,05,31,07,11,40.10
2008,05,31,07,12,42.00
2008,05,31,07,13,42.00
2008,05,31,07,14,42.00
2008,05,31,07,15,42.00
2008,05,31,07,16,42.00
2008,05,31,07,17,43.40
2008,05,31,07,18,44.00
2008,05,31,07,19,44.00
2008,05,31,07,20,44.00
2008,05,31,07,21,44.50
2008,05,31,07,22,46.30
2008,05,31,07,23,46.60
2008,05,31,07,24,46.00
2008,05,31,07,25,46.60
2008,05,31,07,26,56.80
2008,05,31,07,27,70.70
2008,05,31,07,28,62.30
2008,05,31,07,29,50.20
2008,05,31,07,30,46.30
2008,05,31,07,31,46.70
2008,05,31,07,32,46.50
2008,05,31,07,33,48.20
2008,05,31,07,34,49.00
2008,05,31,07,35,47.30
2008,05,31,07,36,47.00
2008,05,31,07,37,47.20
2008,05,31,07,38,49.40
2008,05,31,07,39,49.90
2008,05,31,07,40,47.00
2008,05,31,07,41,48.00
2008,05,31,07,42,53.40
2008,05,31,07,43,59.10
2008,05,31,07,44,58.40
2008,05,31,07,45,56.20
2008,05,31,07,46,73.70
2008,05,31,07,47,67.50
2008,05,31,07,48,56.30
2008,05,31,07,49,64.50
2008,05,31,07,50,88.70
2008,05,31,07,51,107.60
2008,05,31,07,52,81.00
2008,05,31,07,53,63.00
2008,05,31,07,54,75.90
2008,05,31,07,55,71.70
2008,05,31,07,56,60.00
2008,05,31,07,57,60.80
2008,05,31,07,58,60.20
2008,05,31,07,59,59.20
2008,05,31,08,00,63.60
2008,05,31,08,01,62.30
2008,05,31,08,02,54.80
2008,05,31,08,03,62.70
2008,05,31,08,04,105.40
2008,05,31,08,05,143.80
2008,05,31,08,06,183.00
2008,05,31,08,07,274.70
2008,05,31,08,08,354.00
2008,05,31,08,09,357.00
2008,05,31,08,10,361.40
2008,05,31,08,11,366.00
2008,05,31,08,12,369.30
2008,05,31,08,13,371.50
2008,05,31,08,14,373.40
2008,05,31,08,15,376.00
2008,05,31,08,16,379.10
2008,05,31,08,17,382.10
2008,05,31,08,18,384.70
2008,05,31,08,19,387.50
2008,05,31,08,20,390.30
2008,05,31,08,21,394.40
2008,05,31,08,22,396.90
2008,05,31,08,23,399.80
2008,05,31,08,24,402.10
2008,05,31,08,25,404.90
2008,05,31,08,26,407.60
2008,05,31,08,27,409.80
2008,05,31,08,28,412.80
2008,05,31,08,29,415.30
2008,05,31,08,30,417.80
2008,05,31,08,31,420.70
2008,05,31,08,32,423.20
2008,05,31,08,33,426.00
2008,05,31,08,34,429.70
2008,05,31,08,35,433.10
2008,05,31,08,36,435.70
2008,05,31,08,37,438.00
2008,05,31,08,38,441.70
2008,05,31,08,39,445.80
2008,05,31,08,40,448.70
2008,05,31,08,41,451.00
2008,05,31,08,42,453.80
2008,05,31,08,43,456.40
2008,05,31,08,44,458.70
2008,05,31,08,45,461.70
2008,05,31,08,46,464.40
2008,05,31,08,47,468.60
2008,05,31,08,48,472.20
2008,05,31,08,49,475.40
2008,05,31,08,50,476.00
2008,05,31,08,51,480.00
2008,05,31,08,52,482.80
2008,05,31,08,53,484.70
2008,05,31,08,54,489.10
2008,05,31,08,55,490.70
2008,05,31,08,56,494.50
2008,05,31,08,57,496.40
2008,05,31,08,58,499.00
2008,05,31,08,59,502.20
2008,05,31,09,00,503.60
2008,05,31,09,01,505.70
2008,05,31,09,02,511.70
2008,05,31,09,03,513.10
2008,05,31,09,04,515.40
2008,05,31,09,05,517.60
2008,05,31,09,06,520.00
2008,05,31,09,07,523.00
2008,05,31,09,08,525.30
2008,05,31,09,09,528.40
2008,05,31,09,10,530.80
2008,05,31,09,11,533.70
2008,05,31,09,12,536.20
2008,05,31,09,13,538.80
2008,05,31,09,14,541.70
2008,05,31,09,15,543.90
2008,05,31,09,16,546.70
2008,05,31,09,17,548.00
2008,05,31,09,18,550.90
2008,05,31,09,19,553.90
2008,05,31,09,20,557.10
2008,05,31,09,21,559.30
2008,05,31,09,22,561.60
2008,05,31,09,23,564.20
2008,05,31,09,24,568.00
2008,05,31,09,25,570.00
2008,05,31,09,26,573.70
2008,05,31,09,27,576.80
2008,05,31,09,28,577.90
2008,05,31,09,29,580.40
2008,05,31,09,30,584.80
2008,05,31,09,31,587.00
2008,05,31,09,32,588.80
2008,05,31,09,33,591.50
2008,05,31,09,34,593.30
2008,05,31,09,35,598.90
2008,05,31,09,36,599.30
2008,05,31,09,37,603.00
2008,05,31,09,38,605.00
2008,05,31,09,39,606.20
2008,05,31,09,40,610.80
2008,05,31,09,41,613.50
2008,05,31,09,42,615.00
2008,05,31,09,43,617.90
2008,05,31,09,44,620.70
2008,05,31,09,45,621.90
2008,05,31,09,46,626.00
2008,05,31,09,47,626.40
2008,05,31,09,48,629.00
2008,05,31,09,49,631.80
2008,05,31,09,50,634.10
2008,05,31,09,51,636.80
2008,05,31,09,52,639.40
2008,05,31,09,53,640.00
2008,05,31,09,54,645.00
2008,05,31,09,55,645.30
2008,05,31,09,56,647.80
2008,05,31,09,57,650.70
2008,05,31,09,58,652.90
2008,05,31,09,59,655.10
2008,05,31,10,00,656.70
2008,05,31,10,01,658.70
2008,05,31,10,02,660.70
2008,05,31,10,03,664.20
2008,05,31,10,04,666.30
2008,05,31,10,05,668.60
2008,05,31,10,06,671.20
2008,05,31,10,07,673.00
2008,05,31,10,08,675.40
2008,05,31,10,09,678.40
2008,05,31,10,10,681.70
2008,05,31,10,11,683.80
2008,05,31,10,12,686.00
2008,05,31,10,13,687.80
2008,05,31,10,14,691.70
2008,05,31,10,15,693.40
2008,05,31,10,16,694.00
2008,05,31,10,17,695.30
2008,05,31,10,18,697.60
2008,05,31,10,19,700.40
2008,05,31,10,20,703.10
2008,05,31,10,21,705.00
2008,05,31,10,22,705.80
2008,05,31,10,23,708.00
2008,05,31,10,24,711.20
2008,05,31,10,25,714.60
2008,05,31,10,26,716.30
2008,05,31,10,27,718.70
2008,05,31,10,28,719.00
2008,05,31,10,29,722.00
2008,05,31,10,30,724.40
2008,05,31,10,31,726.70
2008,05,31,10,32,728.40
2008,05,31,10,33,730.00
2008,05,31,10,34,731.00
2008,05,31,10,35,733.90
2008,05,31,10,36,736.80
2008,05,31,10,37,738.00
2008,05,31,10,38,740.00
2008,05,31,10,39,741.00
2008,05,31,10,40,744.30
2008,05,31,10,41,745.00
2008,05,31,10,42,747.20
2008,05,31,10,43,750.40
2008,05,31,10,44,751.80
2008,05,31,10,45,753.70
2008,05,31,10,46,756.10
2008,05,31,10,47,758.20
2008,05,31,10,48,759.60
2008,05,31,10,49,762.60
2008,05,31,10,50,765.00
2008,05,31,10,51,765.00
2008,05,31,10,52,767.20
2008,05,31,10,53,771.40
2008,05,31,10,54,770.00
2008,05,31,10,55,772.50
2008,05,31,10,56,775.00
2008,05,31,10,57,776.50
2008,05,31,10,58,779.00
2008,05,31,10,59,781.80
2008,05,31,11,00,782.80
2008,05,31,11,01,782.00
2008,05,31,11,02,785.80
2008,05,31,11,03,788.10
2008,05,31,11,04,789.00
2008,05,31,11,05,789.00
2008,05,31,11,06,791.30
2008,05,31,11,07,795.50
2008,05,31,11,08,797.20
2008,05,31,11,09,799.30
2008,05,31,11,10,801.50
2008,05,31,11,11,800.10
2008,05,31,11,12,804.80
2008,05,31,11,13,805.00
2008,05,31,11,14,805.60
2008,05,31,11,15,807.00
2008,05,31,11,16,808.10
2008,05,31,11,17,809.70
2008,05,31,11,18,811.60
2008,05,31,11,19,813.60
2008,05,31,11,20,816.00
2008,05,31,11,21,817.30
2008,05,31,11,22,819.00
2008,05,31,11,23,819.70
2008,05,31,11,24,821.00
2008,05,31,11,25,822.20
2008,05,31,11,26,823.70
2008,05,31,11,27,824.00
2008,05,31,11,28,827.60
2008,05,31,11,29,828.20
2008,05,31,11,30,831.00
2008,05,31,11,31,832.10
2008,05,31,11,32,835.00
2008,05,31,11,33,835.90
2008,05,31,11,34,839.00
2008,05,31,11,35,841.30
2008,05,31,11,36,843.50
2008,05,31,11,37,846.00
2008,05,31,11,38,844.00
2008,05,31,11,39,845.30
2008,05,31,11,40,849.00
2008,05,31,11,41,848.20
2008,05,31,11,42,849.00
2008,05,31,11,43,849.80
2008,05,31,11,44,852.20
2008,05,31,11,45,853.90
2008,05,31,11,46,856.00
2008,05,31,11,47,855.70
2008,05,31,11,48,855.60
2008,05,31,11,49,860.40
2008,05,31,11,50,862.90
2008,05,31,11,51,868.80
2008,05,31,11,52,874.00
2008,05,31,11,53,875.00
2008,05,31,11,54,883.50
2008,05,31,11,55,886.80
2008,05,31,11,56,896.50
2008,05,31,11,57,906.40
2008,05,31,11,58,920.40
2008,05,31,11,59,945.80
2008,05,31,12,00,964.90
2008,05,31,12,01,972.90
2008,05,31,12,02,992.80
2008,05,31,12,03,1000.00
2008,05,31,12,04,1031.10
2008,05,31,12,05,1029.10
2008,05,31,12,06,1046.00
2008,05,31,12,07,730.50
2008,05,31,12,08,367.00
2008,05,31,12,09,383.00
2008,05,31,12,10,383.00
2008,05,31,12,11,383.00
2008,05,31,12,12,383.00
2008,05,31,12,13,432.00
2008,05,31,12,14,641.90
2008,05,31,12,15,647.00
2008,05,31,12,16,647.00
2008,05,31,12,17,602.50
2008,05,31,12,18,566.00
2008,05,31,12,19,751.30
2008,05,31,12,20,786.00
2008,05,31,12,21,891.00
2008,05,31,12,22,891.00
2008,05,31,12,23,879.90
2008,05,31,12,24,861.00
2008,05,31,12,25,914.80
2008,05,31,12,26,956.70
2008,05,31,12,27,948.70
2008,05,31,12,28,936.20
2008,05,31,12,29,933.30
2008,05,31,12,30,939.00
2008,05,31,12,31,939.80
2008,05,31,12,32,944.70
2008,05,31,12,33,954.50
2008,05,31,12,34,957.80
2008,05,31,12,35,961.80
2008,05,31,12,36,965.00
2008,05,31,12,37,531.50
2008,05,31,12,38,455.00
2008,05,31,12,39,549.20
2008,05,31,12,40,946.70
2008,05,31,12,41,1015.60
2008,05,31,12,42,1001.20
2008,05,31,12,43,967.00
2008,05,31,12,44,620.90
2008,05,31,12,45,463.70
2008,05,31,12,46,450.00
2008,05,31,12,47,591.60
2008,05,31,12,48,566.70
2008,05,31,12,49,605.00
2008,05,31,12,50,678.00
2008,05,31,12,51,751.00
2008,05,31,12,52,617.10
2008,05,31,12,53,541.20
2008,05,31,12,54,557.90
2008,05,31,12,55,608.00
2008,05,31,12,56,608.00
2008,05,31,12,57,608.00
2008,05,31,12,58,608.00
2008,05,31,12,59,646.20
2008,05,31,13,00,679.10
2008,05,31,13,01,671.00
2008,05,31,13,02,671.00
2008,05,31,13,03,1123.00
2008,05,31,13,04,1080.40
2008,05,31,13,05,739.30
2008,05,31,13,06,737.00
2008,05,31,13,07,876.60
2008,05,31,13,08,1051.00
2008,05,31,13,09,741.70
2008,05,31,13,10,632.40
2008,05,31,13,11,668.40
2008,05,31,13,12,675.00
2008,05,31,13,13,675.00
2008,05,31,13,14,675.00
2008,05,31,13,15,819.30
2008,05,31,13,16,1038.00
2008,05,31,13,17,1027.20
2008,05,31,13,18,1017.80
2008,05,31,13,19,1005.70
2008,05,31,13,20,1004.00
2008,05,31,13,21,1000.20
2008,05,31,13,22,977.20
2008,05,31,13,23,1004.00
2008,05,31,13,24,1004.00
2008,05,31,13,25,845.50
2008,05,31,13,26,687.00
2008,05,31,13,27,687.00
2008,05,31,13,28,951.00
2008,05,31,13,29,969.40
2008,05,31,13,30,960.00
2008,05,31,13,31,960.00
2008,05,31,13,32,954.70
2008,05,31,13,33,941.50
2008,05,31,13,34,942.90
2008,05,31,13,35,949.20
2008,05,31,13,36,958.90
2008,05,31,13,37,978.10
2008,05,31,13,38,958.30
2008,05,31,13,39,782.00
2008,05,31,13,40,754.80
2008,05,31,13,41,684.00
2008,05,31,13,42,700.70
2008,05,31,13,43,721.00
2008,05,31,13,44,903.70
2008,05,31,13,45,979.00
2008,05,31,13,46,977.00
2008,05,31,13,47,943.40
2008,05,31,13,48,900.00
2008,05,31,13,49,915.30
2008,05,31,13,50,918.80
2008,05,31,13,51,929.10
2008,05,31,13,52,911.50
2008,05,31,13,53,898.90
2008,05,31,13,54,895.60
2008,05,31,13,55,889.00
2008,05,31,13,56,895.20
2008,05,31,13,57,925.80
2008,05,31,13,58,922.70
2008,05,31,13,59,902.50
2008,05,31,14,00,864.50
2008,05,31,14,01,847.00
2008,05,31,14,02,847.00
2008,05,31,14,03,930.10
2008,05,31,14,04,913.90
2008,05,31,14,05,980.60
2008,05,31,14,06,986.00
2008,05,31,14,07,986.00
2008,05,31,14,08,864.90
2008,05,31,14,09,757.10
2008,05,31,14,10,752.00
2008,05,31,14,11,752.00
2008,05,31,14,12,752.00
2008,05,31,14,13,783.10
2008,05,31,14,14,949.00
2008,05,31,14,15,949.00
2008,05,31,14,16,949.00
2008,05,31,14,17,851.20
2008,05,31,14,18,713.80
2008,05,31,14,19,634.00
2008,05,31,14,20,562.30
2008,05,31,14,21,502.90
2008,05,31,14,22,413.50
2008,05,31,14,23,410.20
2008,05,31,14,24,459.00
2008,05,31,14,25,459.00
2008,05,31,14,26,459.00
2008,05,31,14,27,804.80
2008,05,31,14,28,948.10
2008,05,31,14,29,953.00
2008,05,31,14,30,923.70
2008,05,31,14,31,689.00
2008,05,31,14,32,782.20
2008,05,31,14,33,914.00
2008,05,31,14,34,878.00
2008,05,31,14,35,889.30
2008,05,31,14,36,818.00
2008,05,31,14,37,796.00
2008,05,31,14,38,888.10
2008,05,31,14,39,885.00
2008,05,31,14,40,849.00
2008,05,31,14,41,891.70
2008,05,31,14,42,889.70
2008,05,31,14,43,886.00
2008,05,31,14,44,879.50
2008,05,31,14,45,865.00
2008,05,31,14,46,878.00
2008,05,31,14,47,886.80
2008,05,31,14,48,913.40
2008,05,31,14,49,905.30
2008,05,31,14,50,879.20
2008,05,31,14,51,914.00
2008,05,31,14,52,914.00
2008,05,31,14,53,914.00
2008,05,31,14,54,518.80
2008,05,31,14,55,420.00
2008,05,31,14,56,420.00
2008,05,31,14,57,544.50
2008,05,31,14,58,910.30
2008,05,31,14,59,912.00
2008,05,31,15,00,928.00
2008,05,31,15,01,937.10
2008,05,31,15,02,951.00
2008,05,31,15,03,961.70
2008,05,31,15,04,970.60
2008,05,31,15,05,949.20
2008,05,31,15,06,962.00
2008,05,31,15,07,942.20
2008,05,31,15,08,888.20
2008,05,31,15,09,859.30
2008,05,31,15,10,885.30
2008,05,31,15,11,889.70
2008,05,31,15,12,865.00
2008,05,31,15,13,846.40
2008,05,31,15,14,845.80
2008,05,31,15,15,866.40
2008,05,31,15,16,879.00
2008,05,31,15,17,875.10
2008,05,31,15,18,865.40
2008,05,31,15,19,857.20
2008,05,31,15,20,798.20
2008,05,31,15,21,791.00
2008,05,31,15,22,791.00
2008,05,31,15,23,818.20
2008,05,31,15,24,903.50
2008,05,31,15,25,872.70
2008,05,31,15,26,840.00
2008,05,31,15,27,840.00
2008,05,31,15,28,646.70
2008,05,31,15,29,599.40
2008,05,31,15,30,598.00
2008,05,31,15,31,598.00
2008,05,31,15,32,596.00
2008,05,31,15,33,592.00
2008,05,31,15,34,484.00
2008,05,31,15,35,378.70
2008,05,31,15,36,358.60
2008,05,31,15,37,348.20
2008,05,31,15,38,404.00
2008,05,31,15,39,350.00
2008,05,31,15,40,413.00
2008,05,31,15,41,483.00
2008,05,31,15,42,636.70
2008,05,31,15,43,660.70
2008,05,31,15,44,621.30
2008,05,31,15,45,621.20
2008,05,31,15,46,703.60
2008,05,31,15,47,715.40
2008,05,31,15,48,788.20
2008,05,31,15,49,833.20
2008,05,31,15,50,871.80
2008,05,31,15,51,838.10
2008,05,31,15,52,773.40
2008,05,31,15,53,728.80
2008,05,31,15,54,715.00
2008,05,31,15,55,715.00
2008,05,31,15,56,694.30
2008,05,31,15,57,544.20
2008,05,31,15,58,634.40
2008,05,31,15,59,660.60
2008,05,31,16,00,629.00
2008,05,31,16,01,551.70
2008,05,31,16,02,541.70
2008,05,31,16,03,554.00
2008,05,31,16,04,385.00
2008,05,31,16,05,385.00
2008,05,31,16,06,463.20
2008,05,31,16,07,678.20
2008,05,31,16,08,649.20
2008,05,31,16,09,670.90
2008,05,31,16,10,682.00
2008,05,31,16,11,682.00
2008,05,31,16,12,443.10
2008,05,31,16,13,402.70
2008,05,31,16,14,432.40
2008,05,31,16,15,438.00
2008,05,31,16,16,438.00
2008,05,31,16,17,507.40
2008,05,31,16,18,576.20
2008,05,31,16,19,607.40
2008,05,31,16,20,540.60
2008,05,31,16,21,450.00
2008,05,31,16,22,450.00
2008,05,31,16,23,450.00
2008,05,31,16,24,403.10
2008,05,31,16,25,356.00
2008,05,31,16,26,428.40
2008,05,31,16,27,452.00
2008,05,31,16,28,330.30
2008,05,31,16,29,298.40
2008,05,31,16,30,294.10
2008,05,31,16,31,295.40
2008,05,31,16,32,297.70
2008,05,31,16,33,304.90
2008,05,31,16,34,327.00
2008,05,31,16,35,354.80
2008,05,31,16,36,367.60
2008,05,31,16,37,337.90
2008,05,31,16,38,324.30
2008,05,31,16,39,289.70
2008,05,31,16,40,268.60
2008,05,31,16,41,258.30
2008,05,31,16,42,245.30
2008,05,31,16,43,233.80
2008,05,31,16,44,230.00
2008,05,31,16,45,220.70
2008,05,31,16,46,216.40
2008,05,31,16,47,215.90
2008,05,31,16,48,213.20
2008,05,31,16,49,209.50
2008,05,31,16,50,215.90
2008,05,31,16,51,235.50
2008,05,31,16,52,299.80
2008,05,31,16,53,375.00
2008,05,31,16,54,385.20
2008,05,31,16,55,426.60
2008,05,31,16,56,429.00
2008,05,31,16,57,390.60
2008,05,31,16,58,237.00
2008,05,31,16,59,240.10
2008,05,31,17,00,249.50
2008,05,31,17,01,261.00
2008,05,31,17,02,264.00
2008,05,31,17,03,237.30
2008,05,31,17,04,232.20
2008,05,31,17,05,230.40
2008,05,31,17,06,216.20
2008,05,31,17,07,208.30
2008,05,31,17,08,201.80
2008,05,31,17,09,199.00